This is the latest recevied weather packets stored in our database for station/object K5GTX. If no packets are shown the sender has not sent any weather packets the latest 10 day(s).
| Time | Temp. | Humidity | Pressure | Rain* | Wind** | Luminosity | Snow |
|---|---|---|---|---|---|---|---|
| 1777192691 | 22.78° C | 99% | 1012.9 hPa | 0 mm | - | 0 W/m² | - |
| 1777192388 | 22.78° C | 99% | 1012.8 hPa | 0 mm | - | 0 W/m² | - |
| 1777192084 | 22.78° C | 99% | 1012.8 hPa | 0 mm | - | 0 W/m² | - |
| 1777191782 | 23.33° C | 99% | 1012.6 hPa | 0 mm | - | 0 W/m² | - |
| 1777191477 | 23.33° C | 99% | 1012.5 hPa | 0 mm | - | 0 W/m² | - |
| 1777191173 | 23.89° C | 99% | 1012.6 hPa | 0 mm | - | 0 W/m² | - |
| 1777190871 | 23.89° C | 99% | 1012.8 hPa | 0 mm | - | 0 W/m² | - |
| 1777190568 | 23.89° C | 99% | 1012.7 hPa | 0 mm | - | 0 W/m² | - |
| 1777190263 | 24.44° C | 99% | 1012.6 hPa | 0 mm | - | 0 W/m² | - |
| 1777189959 | 24.44° C | 99% | 1012.2 hPa | 0 mm | - | 0 W/m² | - |
| 1777189657 | 24.44° C | 99% | 1012.2 hPa | 0 mm | - | 0 W/m² | - |
| 1777189351 | 25° C | 99% | 1012 hPa | 0 mm | - | 0 W/m² | - |
| 1777189046 | 25° C | 99% | 1012.1 hPa | 0 mm | - | 0 W/m² | - |
| 1777188744 | 25.56° C | 99% | 1012.1 hPa | 0 mm | - | 0 W/m² | - |
| 1777188440 | 25.56° C | 99% | 1012.4 hPa | 0 mm | - | 0 W/m² | - |
| 1777188139 | 26.11° C | 99% | 1011.9 hPa | 0 mm | - | 0 W/m² | - |
| 1777187835 | 26.11° C | 99% | 1011.6 hPa | 0 mm | - | 0 W/m² | - |
| 1777187530 | 26.11° C | 99% | 1012.2 hPa | 0 mm | - | 0 W/m² | - |
| 1777187226 | 26.67° C | 99% | 1012 hPa | 0 mm | - | 0 W/m² | - |
| 1777186922 | 26.67° C | 99% | 1012.1 hPa | 0 mm | - | 0 W/m² | - |
| 1777186618 | 26.67° C | 99% | 1012.2 hPa | 0 mm | - | 0 W/m² | - |
| 1777186317 | 26.67° C | 99% | 1011.9 hPa | 0 mm | - | 0 W/m² | - |
| 1777186012 | 26.67° C | 99% | 1011.9 hPa | 0 mm | - | 0 W/m² | - |
| 1777185710 | 26.11° C | 99% | 1012 hPa | 0 mm | - | 0 W/m² | - |
| 1777185405 | 26.11° C | 99% | 1012.3 hPa | 0 mm | - | 0 W/m² | - |
* Rain latest hour (hover to see other rain measurements)
** Current wind speed in m/s (hover to see current wind gust speed)